Wetterstats.de || Aktuelle Messwerte / Archiv || Stationsstandorte || Wetterblog || Wissenswertes


Monatsübersicht für August 2019 Diagramm
 
Wetter Information zur Wetteranzeige
Zeitraffer
Tageslänge (hh:mm)
Höchsttemperatur in °C
Uhrzeit
Tiefsttemperatur in °C
Uhrzeit
Luftfeuchte (max., in %)
Uhrzeit
Luftfeuchte (min., in %)
Uhrzeit
Luftdruck (max., in hPa)
Uhrzeit
Luftdruck (min., in hPa)
Uhrzeit
Luftdruck (Ø, in hPa)
Regenrate (max, mm/h)
Uhrzeit
Niederschlag in mm
Niederschlagsdauer (hh:mm)
Verdunstung in mm
Solar in W/m² (Ø)
Solar in W/m² (max.)
UV-Index (max.)
Sonnenscheindauer (hh:mm)
Windrichtung (Ø)
Windstärke (Ø in km/h)
Windstärke (Ø in bft)
Windböe (max., in km/h)
Uhrzeit
Windböe (max., in bft)
Uhrzeit
Taupunkt (max., in °C)
Uhrzeit
Taupunkt (min., in °C)
Uhrzeit
Windchill (min., in °C)
Uhrzeit
Gewitterindex (max.)
Uhrzeit
Waldbrandindex (max.)
Uhrzeit
Graslandfeuerindex (max.)
Uhrzeit
Staubsturm-Index (max.)
Uhrzeit
01
Zeitraffer
15:36
24.4
12:45 Uhr
16.1
03:25 Uhr

95
00:35 Uhr
55
17:25 Uhr
1016.4
02:00 Uhr

1013.8
19:00 Uhr
1015.3
2,400
02:05 Uhr
1,000
00:05:00
1.956
211
823
11:45 Uhr
3.8
12:15 Uhr

02:29:00
0,6
0
19,3
19:30 Uhr

3
17.4
14:55 Uhr
14.3
17:50 Uhr
16.1
03:25 Uhr
10
00:00 Uhr
0.0
00:00 Uhr
0.0
00:00 Uhr
0.0
00:00 Uhr
02
Zeitraffer
15:33
25.2
12:55 Uhr
14.7
05:35 Uhr

94
05:40 Uhr
51
13:45 Uhr
1015.1
00:00 Uhr

1012.0
15:45 Uhr
1013.6
14,400
16:50 Uhr
4,400
00:20:00
2.616
262
804
13:00 Uhr
3.9
12:40 Uhr

06:47:00
1,3
0
19,3
15:25 Uhr

3
17.8
20:00 Uhr
13.6
05:35 Uhr
14.7
05:35 Uhr
11
21:40 Uhr
0.0
00:00 Uhr
1.8
13:15 Uhr
0.0
00:00 Uhr
03
Zeitraffer
15:30
25.2
15:35 Uhr
15.5
05:40 Uhr

94
00:00 Uhr
43
15:50 Uhr
1014.4
23:50 Uhr

1012.4
04:20 Uhr
1013.1
0,000
00:00 Uhr
0,000
00:00:00
3.150
296
838
13:15 Uhr
4.2
12:45 Uhr

06:16:00
1,9
0
35,4
16:00 Uhr

5
16.4
09:00 Uhr
11.2
15:55 Uhr
15.5
05:40 Uhr
10
00:00 Uhr
0.0
00:00 Uhr
0.0
00:00 Uhr
0.0
00:00 Uhr
04
Zeitraffer
15:26
24.9
12:40 Uhr
15.4
05:15 Uhr

88
03:45 Uhr
49
16:45 Uhr
1015.3
09:40 Uhr

1013.4
17:10 Uhr
1014.4
0,000
00:00 Uhr
0,000
00:00:00
1.981
238
875
12:25 Uhr
4.0
12:20 Uhr

03:16:00
0,4
0
8,0
16:00 Uhr

2
17.0
09:50 Uhr
12.3
16:45 Uhr
15.4
05:15 Uhr
8
00:00 Uhr
0.0
00:00 Uhr
1.9
15:15 Uhr
0.0
00:00 Uhr
05
Zeitraffer
15:23
25.7
13:45 Uhr
14.6
04:55 Uhr

90
04:50 Uhr
49
13:50 Uhr
1013.9
00:05 Uhr

1008.2
23:35 Uhr
1010.9
0,000
00:00 Uhr
0,000
00:00:00
2.083
199
910
13:45 Uhr
4.2
13:45 Uhr

04:04:00
0,6
0
14,5
10:10 Uhr

3
16.0
23:55 Uhr
12.6
12:10 Uhr
14.6
04:55 Uhr
10
22:25 Uhr
0.1
14:35 Uhr
2.2
14:05 Uhr
0.0
00:00 Uhr
06
Zeitraffer
15:19
28.4
12:05 Uhr
18.0
05:30 Uhr

86
05:35 Uhr
47
14:15 Uhr
1009.5
08:10 Uhr

1006.5
19:10 Uhr
1008.1
0,000
00:00 Uhr
0,000
00:00:00
2.642
247
807
12:30 Uhr
3.9
12:45 Uhr

05:07:00
0,5
0
19,3
14:15 Uhr

3
18.8
16:45 Uhr
15.2
14:15 Uhr
18.0
05:30 Uhr
12
21:35 Uhr
1.8
14:50 Uhr
3.1
13:05 Uhr
0.0
00:00 Uhr
07
Zeitraffer
26.3
11:20 Uhr
17.8
05:40 Uhr

88
05:20 Uhr
56
14:15 Uhr
1007.5
00:10 Uhr

1004.1
19:20 Uhr
1005.4
0,000
00:00 Uhr
0,000
00:00:00
1.956
182
777
11:10 Uhr
3.3
14:00 Uhr

02:19:00
0,4
0
16,1
11:00 Uhr

3
18.9
10:50 Uhr
14.5
22:45 Uhr
17.8
05:40 Uhr
10
00:00 Uhr
1.6
16:00 Uhr
2.8
12:40 Uhr
0.0
00:00 Uhr
08
Zeitraffer
15:13
26.2
17:40 Uhr
18.3
23:45 Uhr

74
23:55 Uhr
38
17:40 Uhr
1010.7
23:20 Uhr

1008.3
17:40 Uhr
1009.5
0,000
17:40 Uhr
0,000
00:00:00
0.330
29
56
17:45 Uhr
0.0
17:40 Uhr

00:00:00
0,4
0
8,0
17:40 Uhr

2
13.6
21:30 Uhr
10.6
17:45 Uhr
18.3
23:45 Uhr
7
21:30 Uhr
2.0
17:40 Uhr
3.2
17:40 Uhr
0.0
17:40 Uhr
09
Zeitraffer
15:09
27.1
15:25 Uhr
15.4
05:45 Uhr

85
05:15 Uhr
43
14:40 Uhr
1012.1
06:25 Uhr

1008.7
20:30 Uhr
1010.6
0,000
00:00 Uhr
0,000
00:00:00
3.023
283
727
12:00 Uhr
3.6
12:00 Uhr

07:20:00
1,1
0
17,7
18:20 Uhr

3
15.5
10:00 Uhr
12.8
05:40 Uhr
15.4
05:45 Uhr
8
21:40 Uhr
2.1
14:45 Uhr
3.6
14:45 Uhr
0.0
00:00 Uhr
10
Zeitraffer
15:05
28.7
13:50 Uhr
21.8
04:10 Uhr

76
06:55 Uhr
43
13:50 Uhr
1012.6
23:35 Uhr

1006.2
03:45 Uhr
1008.8
0,000
00:00 Uhr
0,000
00:00:00
2.692
230
886
12:25 Uhr
4.3
12:30 Uhr

04:13:00
0,7
0
12,9
01:50 Uhr

2
19.8
09:25 Uhr
12.9
22:15 Uhr
21.8
04:10 Uhr
11
08:25 Uhr
2.2
14:25 Uhr
3.7
14:05 Uhr
0.0
00:00 Uhr
11
Zeitraffer
15:02
28.2
13:00 Uhr
19.1
06:15 Uhr

65
06:05 Uhr
33
18:10 Uhr
1014.9
07:00 Uhr

1010.6
19:30 Uhr
1012.9
0,000
00:00 Uhr
0,000
00:00:00
2.896
272
845
12:30 Uhr
4.4
13:00 Uhr

06:12:00
0,3
0
11,3
15:10 Uhr

2
15.1
22:53 Uhr
9.9
18:10 Uhr
19.1
06:15 Uhr
9
22:53 Uhr
2.7
16:05 Uhr
4.6
15:50 Uhr
0.0
00:00 Uhr
12
Zeitraffer
14:58
25.2
12:30 Uhr
18.3
05:55 Uhr

75
06:15 Uhr
43
14:50 Uhr
1013.9
10:35 Uhr

1010.8
02:40 Uhr
1012.5
0,000
00:00 Uhr
0,000
00:00:00
2.337
218
784
12:05 Uhr
3.9
12:20 Uhr

03:04:00
0,3
0
6,4
09:30 Uhr

1
15.7
01:20 Uhr
10.1
20:50 Uhr
18.3
05:55 Uhr
10
01:20 Uhr
2.7
14:55 Uhr
4.8
16:05 Uhr
0.0
00:00 Uhr
13
Zeitraffer
14:54
23.8
10:35 Uhr
15.8
23:55 Uhr

77
06:15 Uhr
43
19:00 Uhr
1016.0
23:45 Uhr

1011.9
00:25 Uhr
1013.5
0,000
00:00 Uhr
0,000
00:00:00
2.489
248
872
13:45 Uhr
3.5
12:35 Uhr

05:28:00
0,5
0
9,7
15:00 Uhr

2
13.6
08:35 Uhr
8.2
19:00 Uhr
15.8
23:55 Uhr
6
04:00 Uhr
3.4
15:40 Uhr
5.9
10:35 Uhr
1.8
17:10 Uhr
14
Zeitraffer
14:51
22.7
16:20 Uhr
13.6
03:00 Uhr

72
02:55 Uhr
36
15:50 Uhr
1016.9
08:05 Uhr

1014.9
18:25 Uhr
1015.8
0,000
00:00 Uhr
0,000
00:00:00
2.337
232
814
11:50 Uhr
3.1
13:05 Uhr

05:19:00
0,4
0
8,0
10:45 Uhr

2
11.5
10:20 Uhr
6.0
19:40 Uhr
13.6
03:00 Uhr
3
10:20 Uhr
3.6
16:00 Uhr
5.9
11:05 Uhr
1.7
18:10 Uhr
15
Zeitraffer
14:47
23.0
15:15 Uhr
13.0
02:55 Uhr

74
23:50 Uhr
46
10:40 Uhr
1015.3
00:35 Uhr

1009.1
17:40 Uhr
1011.6
0,000
00:00 Uhr
0,000
00:00:00
1.575
129
714
10:40 Uhr
2.2
10:40 Uhr

00:59:00
1,2
0
24,1
15:25 Uhr

4
14.3
23:50 Uhr
6.8
06:35 Uhr
13.0
02:55 Uhr
8
23:04 Uhr
3.4
15:10 Uhr
5.9
09:40 Uhr
3.0
15:25 Uhr


 
Wetter Information zur Wetteranzeige
Zeitraffer
Tageslänge (hh:mm)
Höchsttemperatur in °C
Uhrzeit
Tiefsttemperatur in °C
Uhrzeit
Luftfeuchte (max., in %)
Uhrzeit
Luftfeuchte (min., in %)
Uhrzeit
Luftdruck (max., in hPa)
Uhrzeit
Luftdruck (min., in hPa)
Uhrzeit
Luftdruck (Ø, in hPa)
Regenrate (max, mm/h)
Uhrzeit
Niederschlag in mm
Niederschlagsdauer (hh:mm)
Verdunstung in mm
Solar in W/m² (Ø)
Solar in W/m² (max.)
UV-Index (max.)
Sonnenscheindauer (hh:mm)
Windrichtung (Ø)
Windstärke (Ø in km/h)
Windstärke (Ø in bft)
Windböe (max., in km/h)
Uhrzeit
Windböe (max., in bft)
Uhrzeit
Taupunkt (max., in °C)
Uhrzeit
Taupunkt (min., in °C)
Uhrzeit
Windchill (min., in °C)
Uhrzeit
Gewitterindex (max.)
Uhrzeit
Waldbrandindex (max.)
Uhrzeit
Graslandfeuerindex (max.)
Uhrzeit
Staubsturm-Index (max.)
Uhrzeit
16
Zeitraffer
14:43
22.8
15:30 Uhr
15.4
05:20 Uhr

89
05:05 Uhr
51
17:05 Uhr
1014.9
10:35 Uhr

1011.1
00:00 Uhr
1013.7
0,000
00:00 Uhr
0,000
00:00:00
1.219
121
840
12:05 Uhr
3.2
11:45 Uhr

01:29:00
0,2
0
8,0
15:25 Uhr

2
14.7
02:20 Uhr
11.3
19:05 Uhr
15.4
05:20 Uhr
8
00:00 Uhr
3.2
15:30 Uhr
5.9
15:00 Uhr
1.6
15:00 Uhr
17
Zeitraffer
14:40
26.4
16:20 Uhr
14.8
03:00 Uhr

81
01:50 Uhr
42
16:45 Uhr
1013.9
00:05 Uhr

1007.1
16:25 Uhr
1009.9
0,000
00:00 Uhr
0,000
00:00:00
1.651
123
740
13:40 Uhr
3.6
13:25 Uhr

00:40:00
1,4
0
22,5
14:40 Uhr

4
13.9
23:55 Uhr
9.9
05:50 Uhr
14.8
03:00 Uhr
7
22:10 Uhr
3.5
16:50 Uhr
5.9
14:05 Uhr
2.9
14:40 Uhr
18
Zeitraffer
14:35
25.3
17:45 Uhr
18.1
10:05 Uhr

94
11:35 Uhr
61
00:00 Uhr
1008.2
23:55 Uhr

1003.9
17:35 Uhr
1006.3
26,400
18:25 Uhr
6,200
00:24:00
1.016
98
617
14:15 Uhr
4.0
13:55 Uhr

00:26:00
0,4
0
12,9
16:00 Uhr

2
20.0
19:05 Uhr
13.8
00:00 Uhr
18.1
10:05 Uhr
13
21:05 Uhr
2.9
00:00 Uhr
5.7
00:00 Uhr
0.9
00:00 Uhr
19
Zeitraffer
14:31
24.7
13:20 Uhr
15.9
06:05 Uhr

95
02:10 Uhr
39
15:30 Uhr
1018.0
23:55 Uhr

1008.3
00:00 Uhr
1013.8
0,000
00:00 Uhr
0,000
00:00:00
2.007
219
831
12:35 Uhr
3.6
12:55 Uhr

03:25:00
0,2
0
8,0
12:45 Uhr

2
17.4
00:00 Uhr
9.1
15:35 Uhr
15.9
06:05 Uhr
12
00:00 Uhr
0.0
00:00 Uhr
1.5
14:05 Uhr
0.0
00:00 Uhr
20
Zeitraffer
14:29
25.1
13:40 Uhr
13.1
05:10 Uhr

90
05:05 Uhr
41
12:10 Uhr
1022.2
23:45 Uhr

1018.0
00:00 Uhr
1020.0
0,000
00:00 Uhr
0,000
00:00:00
2.185
238
744
11:05 Uhr
3.3
12:00 Uhr

04:46:00
0,2
0
8,0
13:05 Uhr

2
13.4
08:50 Uhr
9.9
12:10 Uhr
13.1
05:10 Uhr
6
21:00 Uhr
0.6
13:30 Uhr
3.7
13:35 Uhr
0.0
00:00 Uhr
21
Zeitraffer
14:26
23.8
13:00 Uhr
14.7
06:40 Uhr

91
05:25 Uhr
40
16:50 Uhr
1027.5
23:05 Uhr

1022.2
00:00 Uhr
1025.6
2,400
01:05 Uhr
0,200
00:01:00
2.464
269
779
12:35 Uhr
3.3
12:55 Uhr

06:44:00
0,4
0
11,3
11:30 Uhr

2
14.2
03:15 Uhr
7.7
19:00 Uhr
14.7
06:40 Uhr
8
01:50 Uhr
0.7
17:10 Uhr
3.8
18:40 Uhr
0.0
00:00 Uhr
22
Zeitraffer
14:22
25.3
11:50 Uhr
11.8
05:45 Uhr

85
05:45 Uhr
36
16:15 Uhr
1027.5
00:00 Uhr

1024.1
18:40 Uhr
1026.2
0,000
00:00 Uhr
0,000
00:00:00
2.972
285
721
12:05 Uhr
3.3
13:15 Uhr

07:19:00
1,2
0
19,3
15:20 Uhr

3
11.7
11:15 Uhr
8.9
11:55 Uhr
11.8
05:45 Uhr
5
23:25 Uhr
2.9
17:05 Uhr
4.7
16:15 Uhr
0.6
13:10 Uhr
23
Zeitraffer
14:18
26.9
17:15 Uhr
14.3
06:20 Uhr

85
06:15 Uhr
36
16:25 Uhr
1026.3
10:15 Uhr

1023.3
19:15 Uhr
1025.0
0,000
00:00 Uhr
0,000
00:00:00
2.946
288
707
12:25 Uhr
3.6
12:25 Uhr

07:41:00
1,1
0
17,7
13:25 Uhr

3
15.1
09:40 Uhr
10.2
16:25 Uhr
14.3
06:20 Uhr
7
20:55 Uhr
2.9
16:20 Uhr
4.9
16:55 Uhr
0.8
17:50 Uhr
24
Zeitraffer
14:14
27.9
16:35 Uhr
15.1
05:50 Uhr

83
05:55 Uhr
43
14:35 Uhr
1024.3
01:00 Uhr

1020.8
18:45 Uhr
1022.8
0,000
00:00 Uhr
0,000
00:00:00
3.074
264
731
12:05 Uhr
3.4
13:00 Uhr

06:48:00
2,8
1
24,1
15:00 Uhr

4
14.9
09:20 Uhr
12.0
06:20 Uhr
15.1
05:50 Uhr
6
00:00 Uhr
2.8
15:05 Uhr
4.8
15:15 Uhr
1.6
13:45 Uhr
25
Zeitraffer
14:10
30.1
16:10 Uhr
19.4
05:45 Uhr

67
07:35 Uhr
40
15:20 Uhr
1021.3
00:00 Uhr

1018.6
16:55 Uhr
1020.1
0,000
00:00 Uhr
0,000
00:00:00
3.150
234
625
12:45 Uhr
2.9
12:25 Uhr

05:20:00
3,6
1
25,7
15:05 Uhr

4
15.9
10:50 Uhr
12.4
04:35 Uhr
18.8
06:15 Uhr
9
20:50 Uhr
3.1
17:10 Uhr
5.0
15:35 Uhr
1.8
15:05 Uhr
26
Zeitraffer
14:06
30.8
17:00 Uhr
18.3
06:30 Uhr

95
23:00 Uhr
45
17:30 Uhr
1020.5
00:00 Uhr

1016.9
19:05 Uhr
1019.0
43,200
19:45 Uhr
7,200
00:13:00
2.591
211
691
13:55 Uhr
2.9
12:45 Uhr

03:25:00
2,4
1
33,8
19:40 Uhr

5
21.7
23:00 Uhr
13.0
06:25 Uhr
18.0
07:35 Uhr
16
20:50 Uhr
2.9
15:05 Uhr
5.0
17:00 Uhr
1.7
13:20 Uhr
27
Zeitraffer
14:03
31.6
15:15 Uhr
19.3
05:40 Uhr

95
01:50 Uhr
41
15:15 Uhr
1018.0
00:00 Uhr

1014.5
18:10 Uhr
1016.6
0,000
00:00 Uhr
0,000
00:00:00
2.743
256
690
11:00 Uhr
2.9
12:30 Uhr

05:44:00
1,8
0
29,0
17:05 Uhr

4
20.6
00:30 Uhr
15.7
18:00 Uhr
19.3
05:40 Uhr
15
00:00 Uhr
0.0
00:00 Uhr
0.9
15:15 Uhr
0.0
00:00 Uhr
28
Zeitraffer
13:58
32.0
13:25 Uhr
21.5
06:20 Uhr

80
06:15 Uhr
41
15:35 Uhr
1015.2
00:05 Uhr

1011.9
17:10 Uhr
1013.5
0,000
00:00 Uhr
0,000
00:00:00
2.769
254
706
13:20 Uhr
3.2
13:20 Uhr

06:52:00
0,7
0
14,5
19:35 Uhr

3
20.4
10:15 Uhr
15.1
22:50 Uhr
21.5
06:20 Uhr
12
00:00 Uhr
0.0
00:00 Uhr
3.1
16:00 Uhr
0.0
00:00 Uhr
29
Zeitraffer
13:54
29.6
13:40 Uhr
20.2
06:35 Uhr

82
04:50 Uhr
47
15:15 Uhr
1019.1
23:40 Uhr

1013.3
02:25 Uhr
1015.6
0,000
00:00 Uhr
0,000
00:00:00
2.642
247
643
12:45 Uhr
3.2
12:30 Uhr

06:38:00
0,5
0
12,9
16:45 Uhr

2
18.8
11:10 Uhr
15.6
00:00 Uhr
20.2
06:35 Uhr
12
03:20 Uhr
1.9
15:15 Uhr
5.7
14:00 Uhr
0.5
18:00 Uhr
30
Zeitraffer
13:51
28.7
15:40 Uhr
20.3
05:35 Uhr

81
05:40 Uhr
49
16:25 Uhr
1022.0
10:05 Uhr

1019.2
00:00 Uhr
1020.5
0,000
00:00 Uhr
0,000
00:00:00
2.007
175
619
12:20 Uhr
3.0
13:00 Uhr

02:13:00
1,4
0
16,1
15:15 Uhr

3
18.6
10:40 Uhr
15.8
13:35 Uhr
20.3
05:35 Uhr
12
20:40 Uhr
4.3
15:15 Uhr
5.9
00:00 Uhr
2.5
15:15 Uhr
31
Zeitraffer
13:47
32.1
15:30 Uhr
19.7
05:30 Uhr

84
05:25 Uhr
35
17:00 Uhr
1019.5
00:00 Uhr

1009.4
23:55 Uhr
1015.0
0,000
00:00 Uhr
0,000
00:00:00
2.997
251
620
12:50 Uhr
3.0
12:45 Uhr

06:51:00
2,0
0
22,5
18:15 Uhr

4
19.4
10:05 Uhr
14.4
17:20 Uhr
19.7
05:30 Uhr
11
00:00 Uhr
5.9
13:40 Uhr
5.9
00:00 Uhr
2.7
13:20 Uhr

Seiten-Historie || Downloads || Impressum / Datenschutz